Year,Month,Day,Hour,Minute,Value (Times are PST for temperature in C)
2014,12,11,00,00,8.10
2014,12,11,00,01,8.10
2014,12,11,00,02,8.10
2014,12,11,00,03,8.10
2014,12,11,00,04,8.10
2014,12,11,00,05,8.10
2014,12,11,00,06,8.10
2014,12,11,00,07,8.20
2014,12,11,00,08,8.30
2014,12,11,00,09,8.30
2014,12,11,00,10,8.30
2014,12,11,00,11,8.30
2014,12,11,00,12,8.20
2014,12,11,00,13,8.20
2014,12,11,00,14,8.10
2014,12,11,00,15,8.10
2014,12,11,00,16,8.00
2014,12,11,00,17,7.90
2014,12,11,00,18,7.90
2014,12,11,00,19,7.80
2014,12,11,00,20,7.80
2014,12,11,00,21,7.70
2014,12,11,00,22,7.70
2014,12,11,00,23,7.70
2014,12,11,00,24,7.60
2014,12,11,00,25,7.60
2014,12,11,00,26,7.50
2014,12,11,00,27,7.50
2014,12,11,00,28,7.50
2014,12,11,00,29,7.50
2014,12,11,00,30,7.40
2014,12,11,00,31,7.40
2014,12,11,00,32,7.40
2014,12,11,00,33,7.40
2014,12,11,00,34,7.30
2014,12,11,00,35,7.30
2014,12,11,00,36,7.30
2014,12,11,00,37,7.30
2014,12,11,00,38,7.20
2014,12,11,00,39,7.20
2014,12,11,00,40,7.20
2014,12,11,00,41,7.20
2014,12,11,00,42,7.10
2014,12,11,00,43,7.10
2014,12,11,00,44,7.10
2014,12,11,00,45,7.10
2014,12,11,00,46,7.10
2014,12,11,00,47,7.10
2014,12,11,00,48,7.10
2014,12,11,00,49,7.10
2014,12,11,00,50,7.10
2014,12,11,00,51,7.10
2014,12,11,00,52,7.00
2014,12,11,00,53,7.00
2014,12,11,00,54,7.00
2014,12,11,00,55,7.00
2014,12,11,00,56,7.00
2014,12,11,00,57,6.90
2014,12,11,00,58,6.90
2014,12,11,00,59,6.90
2014,12,11,01,00,6.80
2014,12,11,01,01,6.80
2014,12,11,01,02,6.80
2014,12,11,01,03,6.80
2014,12,11,01,04,6.80
2014,12,11,01,05,6.80
2014,12,11,01,06,6.80
2014,12,11,01,07,6.80
2014,12,11,01,08,6.80
2014,12,11,01,09,6.70
2014,12,11,01,10,6.70
2014,12,11,01,11,6.70
2014,12,11,01,12,6.70
2014,12,11,01,13,6.70
2014,12,11,01,14,6.70
2014,12,11,01,15,6.70
2014,12,11,01,16,6.60
2014,12,11,01,17,6.60
2014,12,11,01,18,6.60
2014,12,11,01,19,6.60
2014,12,11,01,20,6.60
2014,12,11,01,21,6.60
2014,12,11,01,22,6.60
2014,12,11,01,23,6.60
2014,12,11,01,24,6.60
2014,12,11,01,25,6.60
2014,12,11,01,26,6.60
2014,12,11,01,27,6.60
2014,12,11,01,28,6.60
2014,12,11,01,29,6.50
2014,12,11,01,30,6.50
2014,12,11,01,31,6.50
2014,12,11,01,32,6.40
2014,12,11,01,33,6.40
2014,12,11,01,34,6.40
2014,12,11,01,35,6.40
2014,12,11,01,36,6.30
2014,12,11,01,37,6.30
2014,12,11,01,38,6.30
2014,12,11,01,39,6.30
2014,12,11,01,40,6.20
2014,12,11,01,41,6.20
2014,12,11,01,42,6.20
2014,12,11,01,43,6.20
2014,12,11,01,44,6.20
2014,12,11,01,45,6.20
2014,12,11,01,46,6.20
2014,12,11,01,47,6.20
2014,12,11,01,48,6.20
2014,12,11,01,49,6.20
2014,12,11,01,50,6.20
2014,12,11,01,51,6.10
2014,12,11,01,52,6.10
2014,12,11,01,53,6.10
2014,12,11,01,54,6.10
2014,12,11,01,55,6.10
2014,12,11,01,56,6.10
2014,12,11,01,57,6.10
2014,12,11,01,58,6.10
2014,12,11,01,59,6.10
2014,12,11,02,00,6.00
2014,12,11,02,01,6.00
2014,12,11,02,02,5.90
2014,12,11,02,03,5.90
2014,12,11,02,04,5.90
2014,12,11,02,05,5.90
2014,12,11,02,06,5.90
2014,12,11,02,07,5.80
2014,12,11,02,08,5.80
2014,12,11,02,09,5.80
2014,12,11,02,10,5.70
2014,12,11,02,11,5.70
2014,12,11,02,12,5.60
2014,12,11,02,13,5.60
2014,12,11,02,14,5.60
2014,12,11,02,15,5.60
2014,12,11,02,16,5.60
2014,12,11,02,17,5.60
2014,12,11,02,18,5.60
2014,12,11,02,19,5.50
2014,12,11,02,20,5.50
2014,12,11,02,21,5.50
2014,12,11,02,22,5.50
2014,12,11,02,23,5.50
2014,12,11,02,24,5.50
2014,12,11,02,25,5.50
2014,12,11,02,26,5.50
2014,12,11,02,27,5.50
2014,12,11,02,28,5.50
2014,12,11,02,29,5.50
2014,12,11,02,30,5.50
2014,12,11,02,31,5.50
2014,12,11,02,32,5.50
2014,12,11,02,33,5.40
2014,12,11,02,34,5.40
2014,12,11,02,35,5.40
2014,12,11,02,36,5.30
2014,12,11,02,37,5.40
2014,12,11,02,38,5.40
2014,12,11,02,39,5.40
2014,12,11,02,40,5.40
2014,12,11,02,41,5.40
2014,12,11,02,42,5.40
2014,12,11,02,43,5.40
2014,12,11,02,44,5.40
2014,12,11,02,45,5.40
2014,12,11,02,46,5.40
2014,12,11,02,47,5.40
2014,12,11,02,48,5.40
2014,12,11,02,49,5.40
2014,12,11,02,50,5.40
2014,12,11,02,51,5.40
2014,12,11,02,52,5.50
2014,12,11,02,53,5.50
2014,12,11,02,54,5.60
2014,12,11,02,55,5.60
2014,12,11,02,56,5.60
2014,12,11,02,57,5.70
2014,12,11,02,58,5.70
2014,12,11,02,59,5.70
2014,12,11,03,00,5.70
2014,12,11,03,01,5.70
2014,12,11,03,02,5.70
2014,12,11,03,03,5.70
2014,12,11,03,04,5.70
2014,12,11,03,05,5.70
2014,12,11,03,06,5.70
2014,12,11,03,07,5.80
2014,12,11,03,08,5.80
2014,12,11,03,09,5.80
2014,12,11,03,10,5.80
2014,12,11,03,11,5.80
2014,12,11,03,12,5.80
2014,12,11,03,13,5.80
2014,12,11,03,14,5.90
2014,12,11,03,15,5.90
2014,12,11,03,16,5.90
2014,12,11,03,17,6.00
2014,12,11,03,18,6.00
2014,12,11,03,19,6.00
2014,12,11,03,20,6.00
2014,12,11,03,21,6.00
2014,12,11,03,22,6.10
2014,12,11,03,23,6.10
2014,12,11,03,24,6.10
2014,12,11,03,25,6.10
2014,12,11,03,26,6.10
2014,12,11,03,27,6.10
2014,12,11,03,28,6.10
2014,12,11,03,29,6.10
2014,12,11,03,30,6.10
2014,12,11,03,31,6.10
2014,12,11,03,32,6.10
2014,12,11,03,33,6.10
2014,12,11,03,34,6.10
2014,12,11,03,35,6.10
2014,12,11,03,36,6.10
2014,12,11,03,37,6.10
2014,12,11,03,38,6.10
2014,12,11,03,39,6.10
2014,12,11,03,40,6.10
2014,12,11,03,41,6.10
2014,12,11,03,42,6.10
2014,12,11,03,43,6.10
2014,12,11,03,44,6.00
2014,12,11,03,45,6.00
2014,12,11,03,46,6.00
2014,12,11,03,47,6.00
2014,12,11,03,48,6.00
2014,12,11,03,49,6.00
2014,12,11,03,50,6.00
2014,12,11,03,51,6.00
2014,12,11,03,52,6.00
2014,12,11,03,53,6.00
2014,12,11,03,54,6.00
2014,12,11,03,55,6.00
2014,12,11,03,56,6.00
2014,12,11,03,57,6.00
2014,12,11,03,58,6.00
2014,12,11,03,59,6.00
2014,12,11,04,00,6.10
2014,12,11,04,01,6.10
2014,12,11,04,02,6.10
2014,12,11,04,03,6.20
2014,12,11,04,04,6.20
2014,12,11,04,05,6.20
2014,12,11,04,06,6.20
2014,12,11,04,07,6.20
2014,12,11,04,08,6.20
2014,12,11,04,09,6.20
2014,12,11,04,10,6.20
2014,12,11,04,11,6.20
2014,12,11,04,12,6.20
2014,12,11,04,13,6.20
2014,12,11,04,14,6.20
2014,12,11,04,15,6.20
2014,12,11,04,16,6.30
2014,12,11,04,17,6.30
2014,12,11,04,18,6.30
2014,12,11,04,19,6.30
2014,12,11,04,20,6.30
2014,12,11,04,21,6.30
2014,12,11,04,22,6.30
2014,12,11,04,23,6.40
2014,12,11,04,24,6.40
2014,12,11,04,25,6.40
2014,12,11,04,26,6.40
2014,12,11,04,27,6.50
2014,12,11,04,28,6.50
2014,12,11,04,29,6.60
2014,12,11,04,30,6.60
2014,12,11,04,31,6.70
2014,12,11,04,32,6.70
2014,12,11,04,33,6.80
2014,12,11,04,34,6.80
2014,12,11,04,35,6.90
2014,12,11,04,36,6.90
2014,12,11,04,37,7.00
2014,12,11,04,38,7.00
2014,12,11,04,39,7.00
2014,12,11,04,40,7.00
2014,12,11,04,41,7.10
2014,12,11,04,42,7.10
2014,12,11,04,43,7.10
2014,12,11,04,44,7.10
2014,12,11,04,45,7.10
2014,12,11,04,46,7.10
2014,12,11,04,47,7.10
2014,12,11,04,48,7.20
2014,12,11,04,49,7.20
2014,12,11,04,50,7.20
2014,12,11,04,51,7.20
2014,12,11,04,52,7.20
2014,12,11,04,53,7.20
2014,12,11,04,54,7.20
2014,12,11,04,55,7.30
2014,12,11,04,56,7.30
2014,12,11,04,57,7.30
2014,12,11,04,58,7.30
2014,12,11,04,59,7.30
2014,12,11,05,00,7.30
2014,12,11,05,01,7.30
2014,12,11,05,02,7.40
2014,12,11,05,03,7.40
2014,12,11,05,04,7.40
2014,12,11,05,05,7.40
2014,12,11,05,06,7.40
2014,12,11,05,07,7.40
2014,12,11,05,08,7.40
2014,12,11,05,09,7.40
2014,12,11,05,10,7.40
2014,12,11,05,11,7.40
2014,12,11,05,12,7.40
2014,12,11,05,13,7.40
2014,12,11,05,14,7.40
2014,12,11,05,15,7.40
2014,12,11,05,16,7.40
2014,12,11,05,17,7.40
2014,12,11,05,18,7.40
2014,12,11,05,19,7.40
2014,12,11,05,20,7.40
2014,12,11,05,21,7.40
2014,12,11,05,22,7.40
2014,12,11,05,23,7.50
2014,12,11,05,24,7.50
2014,12,11,05,25,7.50
2014,12,11,05,26,7.50
2014,12,11,05,27,7.50
2014,12,11,05,28,7.50
2014,12,11,05,29,7.50
2014,12,11,05,30,7.50
2014,12,11,05,31,7.50
2014,12,11,05,32,7.50
2014,12,11,05,33,7.50
2014,12,11,05,34,7.50
2014,12,11,05,35,7.60
2014,12,11,05,36,7.60
2014,12,11,05,37,7.60
2014,12,11,05,38,7.60
2014,12,11,05,39,7.60
2014,12,11,05,40,7.60
2014,12,11,05,41,7.60
2014,12,11,05,42,7.60
2014,12,11,05,43,7.60
2014,12,11,05,44,7.60
2014,12,11,05,45,7.70
2014,12,11,05,46,7.70
2014,12,11,05,47,7.70
2014,12,11,05,48,7.70
2014,12,11,05,49,7.70
2014,12,11,05,50,7.70
2014,12,11,05,51,7.70
2014,12,11,05,52,7.70
2014,12,11,05,53,7.70
2014,12,11,05,54,7.70
2014,12,11,05,55,7.80
2014,12,11,05,56,7.80
2014,12,11,05,57,7.80
2014,12,11,05,58,7.80
2014,12,11,05,59,7.80
2014,12,11,06,00,7.80
2014,12,11,06,01,7.80
2014,12,11,06,02,7.80
2014,12,11,06,03,7.80
2014,12,11,06,04,7.80
2014,12,11,06,05,7.80
2014,12,11,06,06,7.80
2014,12,11,06,07,7.90
2014,12,11,06,08,7.90
2014,12,11,06,09,7.90
2014,12,11,06,10,7.90
2014,12,11,06,11,7.90
2014,12,11,06,12,7.90
2014,12,11,06,13,7.90
2014,12,11,06,14,8.00
2014,12,11,06,15,8.00
2014,12,11,06,16,8.00
2014,12,11,06,17,8.00
2014,12,11,06,18,8.00
2014,12,11,06,19,8.10
2014,12,11,06,20,8.10
2014,12,11,06,21,8.10
2014,12,11,06,22,8.10
2014,12,11,06,23,8.20
2014,12,11,06,24,8.20
2014,12,11,06,25,8.20
2014,12,11,06,26,8.20
2014,12,11,06,27,8.20
2014,12,11,06,28,8.20
2014,12,11,06,29,8.20
2014,12,11,06,30,8.30
2014,12,11,06,31,8.30
2014,12,11,06,32,8.30
2014,12,11,06,33,8.30
2014,12,11,06,34,8.30
2014,12,11,06,35,8.30
2014,12,11,06,36,8.30
2014,12,11,06,37,8.30
2014,12,11,06,38,8.30
2014,12,11,06,39,8.30
2014,12,11,06,40,8.30
2014,12,11,06,41,8.30
2014,12,11,06,42,8.30
2014,12,11,06,43,8.30
2014,12,11,06,44,8.30
2014,12,11,06,45,8.30
2014,12,11,06,46,8.30
2014,12,11,06,47,8.30
2014,12,11,06,48,8.30
2014,12,11,06,49,8.30
2014,12,11,06,50,8.30
2014,12,11,06,51,8.30
2014,12,11,06,52,8.30
2014,12,11,06,53,8.30
2014,12,11,06,54,8.30
2014,12,11,06,55,8.30
2014,12,11,06,56,8.30
2014,12,11,06,57,8.20
2014,12,11,06,58,8.20
2014,12,11,06,59,8.20
2014,12,11,07,00,8.20
2014,12,11,07,01,8.30
2014,12,11,07,02,8.30
2014,12,11,07,03,8.30
2014,12,11,07,04,8.30
2014,12,11,07,05,8.30
2014,12,11,07,06,8.30
2014,12,11,07,07,8.30
2014,12,11,07,08,8.30
2014,12,11,07,09,8.30
2014,12,11,07,10,8.30
2014,12,11,07,11,8.30
2014,12,11,07,12,8.30
2014,12,11,07,13,8.30
2014,12,11,07,14,8.30
2014,12,11,07,15,8.30
2014,12,11,07,16,8.30
2014,12,11,07,17,8.30
2014,12,11,07,18,8.30
2014,12,11,07,19,8.30
2014,12,11,07,20,8.30
2014,12,11,07,21,8.30
2014,12,11,07,22,8.30
2014,12,11,07,23,8.30
2014,12,11,07,24,8.30
2014,12,11,07,25,8.30
2014,12,11,07,26,8.30
2014,12,11,07,27,8.30
2014,12,11,07,28,8.30
2014,12,11,07,29,8.30
2014,12,11,07,30,8.30
2014,12,11,07,31,8.30
2014,12,11,07,32,8.30
2014,12,11,07,33,8.30
2014,12,11,07,34,8.30
2014,12,11,07,35,8.30
2014,12,11,07,36,8.30
2014,12,11,07,37,8.30
2014,12,11,07,38,8.30
2014,12,11,07,39,8.30
2014,12,11,07,40,8.30
2014,12,11,07,41,8.30
2014,12,11,07,42,8.30
2014,12,11,07,43,8.30
2014,12,11,07,44,8.30
2014,12,11,07,45,8.30
2014,12,11,07,46,8.30
2014,12,11,07,47,8.30
2014,12,11,07,48,8.30
2014,12,11,07,49,8.30
2014,12,11,07,50,8.30
2014,12,11,07,51,8.30
2014,12,11,07,52,8.30
2014,12,11,07,53,8.30
2014,12,11,07,54,8.30
2014,12,11,07,55,8.30
2014,12,11,07,56,8.30
2014,12,11,07,57,8.30
2014,12,11,07,58,8.30
2014,12,11,07,59,8.30
2014,12,11,08,00,8.30
2014,12,11,08,01,8.40
2014,12,11,08,02,8.40
2014,12,11,08,03,8.40
2014,12,11,08,04,8.40
2014,12,11,08,05,8.40
2014,12,11,08,06,8.40
2014,12,11,08,07,8.40
2014,12,11,08,08,8.40
2014,12,11,08,09,8.40
2014,12,11,08,10,8.40
2014,12,11,08,11,8.40
2014,12,11,08,12,8.30
2014,12,11,08,13,8.30
2014,12,11,08,14,8.30
2014,12,11,08,15,8.30
2014,12,11,08,16,8.30
2014,12,11,08,17,8.30
2014,12,11,08,18,8.30
2014,12,11,08,19,8.20
2014,12,11,08,20,8.20
2014,12,11,08,21,8.20
2014,12,11,08,22,8.20
2014,12,11,08,23,8.20
2014,12,11,08,24,8.20
2014,12,11,08,25,8.20
2014,12,11,08,26,8.20
2014,12,11,08,27,8.20
2014,12,11,08,28,8.20
2014,12,11,08,29,8.20
2014,12,11,08,30,8.20
2014,12,11,08,31,8.20
2014,12,11,08,32,8.20
2014,12,11,08,33,8.30
2014,12,11,08,34,8.30
2014,12,11,08,35,8.30
2014,12,11,08,36,8.30
2014,12,11,08,37,8.30
2014,12,11,08,38,8.30
2014,12,11,08,39,8.30
2014,12,11,08,40,8.40
2014,12,11,08,41,8.40
2014,12,11,08,42,8.40
2014,12,11,08,43,8.40
2014,12,11,08,44,8.40
2014,12,11,08,45,8.40
2014,12,11,08,46,8.40
2014,12,11,08,47,8.40
2014,12,11,08,48,8.40
2014,12,11,08,49,8.40
2014,12,11,08,50,8.40
2014,12,11,08,51,8.40
2014,12,11,08,52,8.40
2014,12,11,08,53,8.40
2014,12,11,08,54,8.40
2014,12,11,08,55,8.40
2014,12,11,08,56,8.50
2014,12,11,08,57,8.50
2014,12,11,08,58,8.50
2014,12,11,08,59,8.50
2014,12,11,09,00,8.50
2014,12,11,09,01,8.50
2014,12,11,09,02,8.50
2014,12,11,09,03,8.50
2014,12,11,09,04,8.50
2014,12,11,09,05,8.60
2014,12,11,09,06,8.60
2014,12,11,09,07,8.60
2014,12,11,09,08,8.60
2014,12,11,09,09,8.60
2014,12,11,09,10,8.60
2014,12,11,09,11,8.60
2014,12,11,09,12,8.60
2014,12,11,09,13,8.60
2014,12,11,09,14,8.60
2014,12,11,09,15,8.60
2014,12,11,09,16,8.60
2014,12,11,09,17,8.60
2014,12,11,09,18,8.60
2014,12,11,09,19,8.60
2014,12,11,09,20,8.60
2014,12,11,09,21,8.60
2014,12,11,09,22,8.60
2014,12,11,09,23,8.60
2014,12,11,09,24,8.60
2014,12,11,09,25,8.60
2014,12,11,09,26,8.60
2014,12,11,09,27,8.60
2014,12,11,09,28,8.60
2014,12,11,09,29,8.60
2014,12,11,09,30,8.60
2014,12,11,09,31,8.60
2014,12,11,09,32,8.60
2014,12,11,09,33,8.60
2014,12,11,09,34,8.60
2014,12,11,09,35,8.60
2014,12,11,09,36,8.60
2014,12,11,09,37,8.60
2014,12,11,09,38,8.60
2014,12,11,09,39,8.60
2014,12,11,09,40,8.60
2014,12,11,09,41,8.60
2014,12,11,09,42,8.60
2014,12,11,09,43,8.60
2014,12,11,09,44,8.60
2014,12,11,09,45,8.60
2014,12,11,09,46,8.60
2014,12,11,09,47,8.60
2014,12,11,09,48,8.50
2014,12,11,09,49,8.60
2014,12,11,09,50,8.50
2014,12,11,09,51,8.50
2014,12,11,09,52,8.50
2014,12,11,09,53,8.50
2014,12,11,09,54,8.50
2014,12,11,09,55,8.50
2014,12,11,09,56,8.50
2014,12,11,09,57,8.50
2014,12,11,09,58,8.40
2014,12,11,09,59,8.40
2014,12,11,10,00,8.50
2014,12,11,10,01,8.50
2014,12,11,10,02,8.50
2014,12,11,10,03,8.50
2014,12,11,10,04,8.50
2014,12,11,10,05,8.50
2014,12,11,10,06,8.50
2014,12,11,10,07,8.50
2014,12,11,10,08,8.40
2014,12,11,10,09,8.40
2014,12,11,10,10,8.40
2014,12,11,10,11,8.40
2014,12,11,10,12,8.50
2014,12,11,10,13,8.50
2014,12,11,10,14,8.50
2014,12,11,10,15,8.50
2014,12,11,10,16,8.50
2014,12,11,10,17,8.40
2014,12,11,10,18,8.40
2014,12,11,10,19,8.40
2014,12,11,10,20,8.40
2014,12,11,10,21,8.40
2014,12,11,10,22,8.40
2014,12,11,10,23,8.40
2014,12,11,10,24,8.40
2014,12,11,10,25,8.30
2014,12,11,10,26,8.30
2014,12,11,10,27,8.30
2014,12,11,10,28,8.30
2014,12,11,10,29,8.30
2014,12,11,10,30,8.30
2014,12,11,10,31,8.30
2014,12,11,10,32,8.30
2014,12,11,10,33,8.30
2014,12,11,10,34,8.30
2014,12,11,10,35,8.30
2014,12,11,10,36,8.30
2014,12,11,10,37,8.30
2014,12,11,10,38,8.30
2014,12,11,10,39,8.20
2014,12,11,10,40,8.20
2014,12,11,10,41,8.20
2014,12,11,10,42,8.20
2014,12,11,10,43,8.20
2014,12,11,10,44,8.20
2014,12,11,10,45,8.20
2014,12,11,10,46,8.20
2014,12,11,10,47,8.20
2014,12,11,10,48,8.20
2014,12,11,10,49,8.20
2014,12,11,10,50,8.20
2014,12,11,10,51,8.20
2014,12,11,10,52,8.20
2014,12,11,10,53,8.20
2014,12,11,10,54,8.20
2014,12,11,10,55,8.20
2014,12,11,10,56,8.20
2014,12,11,10,57,8.20
2014,12,11,10,58,8.20
2014,12,11,10,59,8.10
2014,12,11,11,00,8.10
2014,12,11,11,01,8.10
2014,12,11,11,02,8.10
2014,12,11,11,03,8.10
2014,12,11,11,04,8.10
2014,12,11,11,05,8.10
2014,12,11,11,06,8.10
2014,12,11,11,07,8.10
2014,12,11,11,08,8.10
2014,12,11,11,09,8.20
2014,12,11,11,10,8.20
2014,12,11,11,11,8.20
2014,12,11,11,12,8.20
2014,12,11,11,13,8.20
2014,12,11,11,14,8.20
2014,12,11,11,15,8.20
2014,12,11,11,16,8.20
